Regional Weather Roundup
Issued by NWS Albany, NY

Home | Current Version | Previous Version | Text Only | Print | Product List | Glossary On
Versions: 1 2 3 4 5 6 7 8 9 10 11 12 13 14 15 16 17 18 19 20 21 22 23 24 25 26 27 28 29 30 31 32 33 34 35 36 37 38 39 40 41 42 43 44 45 46 47 48 49
000
ASUS41 KALY 031710
RWRALY

NEW YORK STATE HOURLY WEATHER ROUNDUP
NATIONAL WEATHER SERVICE ALBANY NY
100 PM EDT FRI JUL 03 2015

NOTE: "FAIR" INDICATES FEW OR NO CLOUDS BELOW 12,000 FEET WITH NO
SIGNIFICANT WEATHER AND/OR NO OBSTRUCTIONS TO VISIBILITY.

NYZ032-033-038>043-046>054-057>066-NYZ062>081-031800-
EAST


CITY           SKY/WX    TMP DP  RH WIND       PRES   REMARKS
ALBANY         MOSUNNY   76  49  38 VRB6      30.00F
GLENS FALLS    PTSUNNY   72  46  39 VRB3      29.99S
POUGHKEEPSIE   SUNNY     75  50  41 MISG      29.98F
NEWBURGH       SUNNY     72  52  49 VRB5      30.01
MONTGOMERY     SUNNY     74  54  49 SE7       30.00F
WHITE PLAINS   SUNNY     75  48  38 VRB3      29.99F
ISLIP          MOSUNNY   77  52  41 NW9       29.97S
NEW YORK CITY  MOSUNNY   77  48  35 CALM      29.98F
CENTRAL PARK   SUNNY     79  49  34 CALM      30.01F
$$

NYZ005>009-017-018-044>046-055-056-031800-
CENTRAL


CITY           SKY/WX    TMP DP  RH WIND       PRES   REMARKS
FULTON         PTSUNNY   73  48  41 VRB3      30.00F
SYRACUSE       MOSUNNY   73  47  39 NW3       30.00F
ROME           SUNNY     71  48  43 SW7       30.02F
ELMIRA         SUNNY     72  49  44 S6        30.00F
BINGHAMTON     SUNNY     67  45  45 VRB3      30.03F
MONTICELLO     SUNNY     72  45  37 CALM      30.03F
$$

NYZ026>034-041>043-031800-
NORTH


CITY           SKY/WX    TMP DP  RH WIND       PRES   REMARKS
WATERTOWN      SUNNY     70  55  59 W10       30.00F
FORT DRUM      NOT AVBL
MASSENA        PTSUNNY   74  49  41 SW7       29.98F
SARANAC LAKE   PTSUNNY   69  42  37 VRB3      30.00S
PLATTSBURGH    SUNNY     72  53  51 SE10      29.96F
$$

NYZ001>004-010>016-019>021-031800-
WEST


CITY           SKY/WX    TMP DP  RH WIND       PRES   REMARKS
NIAGARA FALLS  MOSUNNY   70  46  42 SW7       29.99F
BUFFALO        MOSUNNY   72  46  39 E6        29.99F
DUNKIRK        SUNNY     70  54  56 N10       29.99F
JAMESTOWN      MOSUNNY   66  48  52 S6        30.01F
WELLSVILLE     SUNNY     70  50  49 VRB5      30.03F
ROCHESTER      MOSUNNY   72  46  39 VRB6      30.01F
PENN YAN       SUNNY     72  47  40 VRB3      30.02F
$$

             KEY
       WCI = WIND CHILL INDEX
       VSB = VISIBILITY
       HX  = HEAT INDEX
$$


USA.gov is the U.S. government's official web portal to all federal, state and local government web resources and services.